Wind_Speed
38 38 35 34 32 30 30 30 27 27 26 27 23 23 24 24 23 23 25 25 21 27 26 25 26 27 29 28 28 28 29 29 28 30 32 33 33 38 39 41 43 44 43
44 41 38 39 36 35 33 31 30 31 29 29 27 25 26 25 24 25 26 26 26 23 24 24 26 27 29 29 30 31 31 30 31 32 29 31 33 34 36 37 38 38 38
43 44 42 42 40 38 36 31 31 32 32 32 28 30 27 25 23 26 26 25 26 27 26 27 26 25 27 28 29 31 31 33 31 33 33 34 33 34 35 35 35 36 34
43 44 42 43 42 41 38 35 32 32 35 33 32 31 31 26 26 27 29 27 26 28 29 29 29 29 28 28 27 28 31 32 32 35 35 35 35 36 39 37 34 34 31
45 44 43 43 45 42 39 37 38 34 35 34 33 31 33 32 28 26 29 30 29 30 31 30 29 31 31 31 31 31 32 33 33 33 33 35 35 37 38 37 36 33 33
45 45 46 45 45 44 42 40 39 37 36 37 34 33 33 34 31 31 32 34 34 33 32 33 32 33 35 34 33 34 33 32 34 35 36 37 37 37 37 38 36 32 30
51 50 46 46 45 44 43 43 40 40 38 36 34 35 31 31 28 27 28 29 35 36 34 37 36 36 37 37 34 33 33 33 36 37 37 38 37 35 35 34 34 32 32
48 50 48 46 45 45 44 40 39 40 40 40 36 30 29 32 31 32 36 37 37 40 41 41 41 39 39 41 38 39 38 37 37 38 39 41 41 37 33 33 34 34 34
48 47 48 46 43 43 41 40 41 40 39 40 38 35 31 31 30 31 31 33 35 40 41 42 41 41 39 40 43 43 43 42 42 40 40 41 39 37 33 32 32 34 36
50 49 49 49 48 45 43 43 42 42 40 39 40 38 39 38 39 40 38 40 38 38 37 38 44 43 44 43 44 45 47 48 46 43 42 40 39 37 35 33 34 36 37
53 51 51 52 52 48 47 46 45 43 40 38 40 42 44 45 46 42 42 38 38 39 42 45 46 47 49 48 48 49 49 48 45 42 40 39 37 36 36 35 37 37 36
58 57 56 54 54 52 52 49 46 45 45 43 44 45 46 44 39 39 37 37 37 38 40 42 45 47 49 49 48 46 46 46 43 41 41 39 35 37 38 38 39 35 35
62 60 59 59 55 54 54 52 51 49 49 49 49 45 42 41 39 39 39 39 40 41 43 45 47 48 48 47 46 44 44 44 44 41 40 41 37 37 39 39 35 34 34
64 63 61 60 57 56 55 55 53 51 51 51 48 46 44 43 43 41 39 41 44 45 45 47 49 50 48 44 45 44 43 43 43 42 41 41 41 38 37 40 38 38 41
66 64 64 62 59 56 56 55 52 51 51 47 47 47 46 47 45 43 44 46 48 47 47 49 49 46 46 44 45 42 41 41 41 39 39 40 41 39 35 36 37 46 48
69 67 66 67 65 63 62 59 56 53 51 49 49 48 49 47 46 46 49 49 49 50 50 51 48 47 42 42 39 38 38 39 37 35 37 39 38 35 33 32 43 41 48
72 71 69 68 67 64 64 61 59 58 55 53 50 48 48 50 51 50 52 52 52 49 50 49 47 43 38 37 35 37 38 37 36 35 37 36 35 31 33 33 43 42 50
78 76 74 70 68 66 67 65 62 59 57 55 54 52 52 53 53 51 54 50 50 50 51 48 43 39 35 33 35 33 34 34 31 33 34 31 32 32 24 30 41 45 54
84 80 77 74 71 70 70 68 66 63 60 58 55 52 54 53 55 53 53 50 50 49 50 45 42 40 39 38 38 36 33 34 31 33 32 30 30 37 37 42 43 50 52
88 84 78 79 77 73 71 71 68 64 61 59 57 56 56 55 57 55 53 50 51 49 49 45 43 40 39 39 37 36 33 33 32 32 31 33 32 38 42 50 50 47 58
91 86 82 76 75 73 70 70 68 64 62 61 60 60 58 56 57 55 53 52 52 49 49 45 43 41 38 38 41 38 32 31 34 34 32 31 36 35 46 56 55 59 62
92 88 83 77 73 72 71 72 71 69 66 64 63 62 60 58 57 57 54 52 52 51 47 45 45 42 41 38 42 40 32 31 33 35 36 36 37 37 43 55 55 58 59
95 91 85 80 78 76 71 72 72 72 70 68 66 64 63 60 61 57 56 53 52 52 49 44 47 45 43 41 41 40 37 34 35 36 38 40 41 42 43 46 53 58 58
96 92 89 83 82 78 75 70 75 75 73 72 70 68 66 64 61 58 57 55 53 53 51 48 46 46 46 47 44 40 42 39 37 40 38 38 39 44 47 50 52 52 54
97 96 92 87 86 82 80 79 77 75 75 75 73 70 67 66 63 60 58 57 56 55 53 51 48 50 46 47 48 47 44 43 42 42 44 42 41 41 43 46 50 56 59
102 100 96 93 91 87 85 85 83 80 80 79 74 71 70 67 64 62 60 59 58 58 55 53 51 49 51 50 49 51 51 51 48 49 49 47 44 43 44 46 47 49 52
Wind_Direction
231 236 240 245 249 246 246 237 237 248 241 245 258 259 261 257 255 249 239 237 236 239 245 252 254 254 255 251 253 251 256 257 260 258 258 260 259 258 262 265 269 269 275
237 239 240 245 248 253 251 244 240 244 242 247 253 258 261 260 253 250 246 241 239 244 249 251 254 252 255 258 258 261 258 257 257 262 267 267 263 262 263 266 267 270 270
241 242 243 245 249 251 250 247 249 251 244 245 254 261 265 264 252 250 249 245 245 251 253 257 256 255 253 257 260 264 263 262 266 266 270 274 276 277 276 274 274 274 275
237 242 244 244 247 251 251 251 247 247 245 250 257 259 259 254 256 252 247 251 250 255 256 255 257 258 256 261 265 265 264 267 269 268 270 271 273 274 274 277 277 276 274
241 243 245 244 245 247 249 247 247 252 249 255 254 260 262 254 252 249 252 251 256 262 259 258 262 261 262 263 266 268 266 265 266 270 271 272 274 273 274 277 277 275 273
241 244 245 245 246 247 246 248 249 252 251 252 258 259 266 254 250 255 257 255 259 259 263 262 267 268 265 266 267 270 270 271 274 275 275 275 275 275 275 274 271 274 271
243 244 243 243 246 243 242 248 247 250 251 251 256 261 258 249 252 253 255 260 257 256 259 264 267 270 269 269 269 272 272 276 281 281 279 277 274 273 269 268 268 266 259
242 241 241 244 246 242 243 245 246 249 253 255 255 253 257 253 253 256 263 267 262 258 262 262 264 267 266 266 267 271 268 274 283 282 277 275 274 273 269 268 264 265 261
243 241 239 241 243 239 240 246 248 250 250 251 251 252 257 254 257 259 264 266 269 267 263 264 263 269 270 267 264 267 272 277 282 282 276 276 273 270 268 266 263 264 263
244 243 240 240 241 240 242 245 247 251 250 252 251 249 252 257 260 258 266 264 268 273 268 269 275 272 269 270 272 272 272 275 279 278 275 269 268 264 262 260 257 257 255
242 245 242 241 239 238 241 246 245 245 245 249 250 251 254 259 265 266 269 268 271 272 271 273 273 275 274 275 276 275 274 276 276 273 271 270 267 263 261 256 254 255 260
242 244 243 241 240 240 242 243 242 245 248 251 254 255 257 261 264 265 269 273 275 275 275 275 274 271 270 270 270 271 271 270 268 267 268 267 262 261 259 257 261 259 259
240 243 242 241 242 242 242 242 244 247 250 252 257 258 257 258 260 268 275 280 283 284 282 283 281 278 273 271 269 269 268 268 266 266 266 263 262 258 255 254 254 253 269
238 239 241 242 243 244 242 242 245 248 252 254 256 255 256 259 266 273 279 284 285 287 286 285 283 281 278 274 271 271 270 269 264 261 260 258 259 256 256 251 246 250 239
240 239 240 239 242 243 242 243 246 250 253 255 255 256 255 261 268 274 282 287 288 288 290 287 282 282 279 274 274 272 269 264 264 262 259 257 255 253 257 256 257 256 249
239 238 239 239 241 243 242 244 246 248 248 251 253 255 257 264 269 273 281 288 287 289 290 287 285 282 279 276 272 270 268 265 262 261 258 257 253 250 254 253 248 255 265
236 236 237 238 239 242 243 244 247 246 247 251 253 256 261 266 271 273 280 285 288 290 287 286 281 280 274 272 270 271 270 265 263 260 258 253 249 241 239 261 265 254 260
237 237 236 237 240 240 242 244 246 246 248 251 254 257 262 265 268 275 282 282 286 287 286 282 279 276 273 274 273 274 275 263 261 259 255 251 244 229 224 228 239 246 256
234 235 237 237 237 237 240 243 244 245 248 250 252 255 258 264 269 274 277 277 281 282 282 279 274 272 272 272 272 275 276 263 260 257 258 242 242 228 222 223 228 240 248
234 235 235 235 235 235 239 241 244 246 247 249 251 252 256 262 268 270 272 274 279 279 280 274 269 267 270 273 272 274 275 266 261 255 261 251 250 241 226 230 233 248 253
232 233 235 234 233 235 237 242 245 245 246 247 249 252 257 260 263 266 268 271 279 276 278 271 265 263 266 266 271 267 269 268 259 256 257 251 246 247 230 230 239 239 253
230 231 232 233 234 234 236 241 244 245 245 247 249 252 256 259 260 264 268 270 274 274 271 269 262 259 262 267 270 263 263 269 270 260 254 255 254 248 239 233 245 252 259
228 230 230 232 234 237 236 239 242 244 246 247 249 251 254 256 258 264 265 267 271 270 268 264 261 257 261 264 265 267 260 267 269 267 261 258 255 254 246 238 245 248 255
227 228 229 231 233 237 238 236 239 242 244 246 246 249 251 253 257 259 263 264 266 267 267 266 261 259 260 261 263 261 263 266 267 270 268 266 264 261 259 257 253 252 254
228 229 230 230 233 236 236 236 238 242 244 245 247 250 250 253 256 257 261 261 264 264 264 266 267 252 259 262 262 263 263 264 266 267 268 269 269 269 269 269 266 262 262
229 230 231 231 233 234 236 238 240 242 245 246 246 246 249 251 253 255 258 257 261 261 261 262 260 252 255 261 263 262 264 266 265 266 267 268 270 270 270 271 270 268 269
Height
10865 10868 10873 10876 10879 10882 10886 10890 10892 10894 10897 10899 10900 10902 10903 10904 10906 10907 10909 10910 10911 10912 10912 10912 10912 10913 10914 10915 10916 10917 10919 10920 10920 10921 10920 10920 10921 10921 10921 10921 10920 10921 10920
10859 10864 10870 10872 10875 10878 10881 10885 10888 10891 10893 10895 10896 10898 10899 10901 10902 10903 10905 10908 10909 10909 10910 10910 10910 10910 10910 10910 10911 10912 10913 10914 10914 10915 10915 10916 10916 10916 10915 10915 10914 10915 10915
10854 10858 10864 10867 10870 10873 10876 10880 10883 10886 10888 10890 10892 10894 10896 10897 10898 10900 10901 10902 10904 10905 10906 10906 10907 10907 10907 10907 10908 10908 10908 10908 10908 10909 10909 10909 10909 10909 10910 10910 10910 10909 10910
10846 10851 10856 10861 10865 10868 10871 10875 10878 10880 10883 10886 10888 10890 10892 10893 10895 10896 10897 10898 10899 10900 10901 10902 10902 10903 10904 10904 10904 10904 10904 10903 10903 10904 10905 10905 10905 10905 10906 10906 10906 10905 10906
10839 10844 10849 10854 10858 10862 10865 10868 10872 10875 10878 10880 10882 10884 10886 10888 10890 10892 10893 10894 10895 10895 10896 10896 10897 10898 10899 10900 10901 10900 10900 10900 10899 10900 10900 10900 10900 10900 10900 10901 10901 10901 10901
10832 10837 10841 10847 10851 10856 10859 10862 10865 10869 10871 10874 10877 10879 10880 10882 10884 10887 10888 10889 10890 10890 10890 10891 10892 10893 10895 10896 10897 10897 10895 10896 10896 10895 10895 10895 10895 10896 10895 10895 10896 10896 10896
10826 10830 10834 10839 10844 10848 10852 10856 10859 10862 10865 10868 10871 10874 10875 10877 10879 10881 10883 10884 10885 10885 10886 10886 10888 10889 10890 10890 10891 10891 10890 10891 10890 10890 10889 10889 10888 10889 10889 10889 10890 10891 10892
10816 10822 10826 10832 10836 10841 10846 10849 10853 10856 10859 10862 10865 10868 10869 10871 10873 10875 10876 10877 10879 10880 10882 10883 10884 10884 10884 10885 10885 10884 10884 10885 10885 10884 10884 10883 10883 10883 10883 10884 10884 10885 10886
10809 10815 10818 10824 10829 10834 10839 10843 10846 10849 10852 10855 10859 10862 10863 10866 10867 10868 10869 10870 10872 10873 10875 10877 10877 10878 10878 10878 10878 10878 10879 10878 10878 10878 10878 10877 10877 10877 10877 10878 10879 10879 10880
10802 10806 10811 10816 10821 10826 10832 10836 10839 10842 10845 10849 10852 10855 10858 10859 10860 10863 10865 10865 10867 10868 10870 10870 10871 10871 10871 10871 10871 10871 10871 10871 10871 10871 10870 10870 10870 10870 10871 10871 10872 10872 10871
10793 10796 10801 10807 10812 10819 10824 10828 10831 10834 10839 10841 10845 10847 10850 10852 10853 10856 10857 10860 10862 10863 10864 10864 10863 10863 10862 10862 10863 10863 10863 10862 10863 10863 10863 10863 10864 10863 10864 10864 10864 10866 10867
10782 10786 10792 10798 10804 10811 10815 10819 10823 10828 10830 10833 10837 10841 10844 10845 10847 10848 10851 10853 10855 10856 10856 10855 10854 10854 10854 10854 10854 10854 10854 10854 10854 10855 10855 10855 10857 10856 10857 10857 10858 10859 10861
10771 10780 10784 10789 10797 10802 10807 10811 10816 10820 10822 10825 10828 10833 10836 10836 10839 10842 10844 10845 10846 10847 10846 10846 10844 10844 10844 10844 10845 10845 10845 10845 10845 10846 10846 10847 10849 10849 10848 10850 10852 10854 10853
10763 10768 10774 10782 10789 10793 10799 10802 10807 10811 10814 10817 10821 10825 10828 10829 10831 10834 10836 10837 10837 10837 10837 10835 10834 10833 10833 10834 10834 10836 10835 10835 10836 10837 10837 10839 10840 10841 10842 10843 10844 10846 10846
10755 10761 10766 10772 10779 10784 10790 10794 10798 10802 10805 10810 10813 10816 10819 10821 10824 10827 10827 10828 10827 10827 10827 10826 10824 10823 10823 10824 10824 10825 10826 10827 10827 10828 10829 10831 10832 10833 10836 10838 10838 10837 10839
10744 10751 10756 10762 10767 10775 10779 10784 10788 10793 10797 10802 10804 10807 10810 10813 10815 10818 10818 10819 10818 10818 10817 10815 10813 10813 10814 10815 10814 10816 10816 10817 10818 10820 10821 10823 10824 10827 10830 10832 10830 10830 10827
10731 10738 10746 10751 10756 10764 10769 10774 10779 10784 10789 10792 10795 10799 10802 10804 10805 10807 10808 10809 10809 10808 10807 10805 10804 10804 10805 10806 10807 10808 10809 10809 10810 10812 10813 10815 10817 10821 10823 10825 10824 10822 10820
10718 10726 10734 10739 10746 10752 10757 10763 10768 10775 10779 10782 10786 10790 10791 10796 10796 10798 10799 10800 10799 10798 10798 10796 10796 10796 10797 10799 10800 10801 10802 10802 10803 10804 10805 10807 10810 10815 10819 10823 10820 10816 10812
10703 10712 10724 10728 10734 10741 10746 10750 10756 10764 10769 10772 10776 10779 10782 10785 10786 10789 10790 10791 10791 10790 10789 10789 10788 10788 10790 10792 10793 10794 10795 10795 10796 10798 10798 10802 10804 10807 10813 10814 10812 10811 10807
10690 10700 10710 10716 10722 10728 10732 10736 10744 10752 10757 10761 10765 10768 10772 10775 10776 10777 10780 10781 10781 10781 10781 10781 10780 10781 10783 10785 10786 10787 10788 10788 10789 10791 10791 10794 10797 10800 10803 10804 10805 10802 10800
10676 10686 10696 10702 10711 10718 10721 10724 10731 10741 10745 10749 10752 10756 10761 10765 10765 10767 10769 10770 10772 10772 10772 10773 10773 10775 10775 10777 10779 10780 10781 10781 10782 10784 10784 10786 10788 10792 10795 10796 10798 10795 10793
10659 10671 10679 10688 10696 10703 10710 10713 10718 10723 10731 10736 10741 10745 10749 10753 10754 10755 10759 10761 10762 10763 10763 10764 10765 10766 10768 10769 10770 10771 10773 10774 10775 10776 10778 10779 10780 10782 10786 10788 10788 10787 10786
10641 10654 10664 10674 10680 10688 10696 10703 10705 10709 10718 10724 10728 10733 10737 10740 10742 10746 10748 10751 10751 10752 10754 10755 10756 10757 10760 10761 10761 10763 10763 10766 10766 10768 10769 10771 10772 10772 10776 10778 10777 10777 10775
10625 10635 10649 10658 10666 10674 10685 10690 10692 10699 10705 10708 10712 10718 10724 10728 10731 10736 10737 10740 10741 10742 10744 10745 10748 10749 10750 10751 10753 10753 10754 10756 10757 10759 10760 10762 10762 10762 10763 10764 10765 10765 10765
10612 10620 10633 10644 10649 10660 10671 10676 10679 10684 10688 10694 10701 10707 10713 10716 10720 10724 10727 10729 10731 10732 10733 10734 10736 10739 10741 10741 10742 10744 10744 10745 10747 10749 10750 10751 10752 10753 10753 10753 10753 10753 10754
10593 10604 10618 10627 10634 10646 10652 10659 10668 10671 10674 10679 10686 10693 10699 10704 10708 10711 10715 10717 10719 10721 10722 10723 10725 10727 10728 10730 10732 10733 10735 10735 10738 10739 10740 10741 10743 10743 10743 10742 10742 10741 10741